Weather History for Cross City, FL

Change the Weather History Date:

Saturday, May 18, 2013

  Actual Average Record
Temperature  
Mean Temperature 77 °F 75 °F  
Max Temperature 91 °F 88 °F 93 °F (1998)
Min Temperature 62 °F 62 °F 46 °F (2011)
Degree Days  
Heating Degree Days 0 0  
Month to date heating degree days 9 0  
Since 1 July heating degree days 1133 1303  
Cooling Degree Days 12 10  
Month to date cooling degree days 89 142  
Year to date cooling degree days 374 324  
Growing Degree Days 26 (Base 50)    
Moisture  
Dew Point 65 °F    
Average Humidity 71    
Maximum Humidity 93    
Minimum Humidity 44    
Precipitation  
Precipitation 0.00 in 0.07 in 0.37 in (2008)
Month to date precipitation 2.30 1.27  
Year to date precipitation 9.84 15.75  
Sea Level Pressure  
Sea Level Pressure 30.08 in    
Wind  
Wind Speed 3 mph (WSW)    
Max Wind Speed 15 mph    
Max Gust Speed 20 mph    
T = Trace of Precipitation, MM = Missing Value Source: NWS Daily Summary

Daily Weather History Graph

Daily Weather History Graph

Search for Another Location

Airport:

Trip Planner

Search our weather history database for the weather conditions in past years. The results will help you decide how hot, cold, wet, or windy it might be!

Date:

Astronomy

May. 18, 2013 Rise Set
Actual Time 6:37 AM EDT 8:20 PM EDT
Civil Twilight 6:11 AM EDT 8:46 PM EDT
Nautical Twilight 5:40 AM EDT 9:18 PM EDT
Astronomical Twilight 5:06 AM EDT 9:51 PM EDT
Moon 1:52 PM EDT (5/18) 1:58 AM EDT (5/18)
Length of Visible Light 14h 34m
Length of Day
13h 42m
First Quarter, 55% of the Moon is Illuminated
May 18
First Quarter
May 25
Full
May 31
Last Quarter
Jun 8
New
Jun 16
First Quarter

Hourly Weather History & Observations

Time (EDT) Temp. Heat Index Dew Point Humidity Pressure Visibility Wind Dir Wind Speed Gust Speed Precip Events Conditions
12:53 AM 66.9 °F - 64.0 °F 90% 30.09 in - Calm Calm - N/A   Unknown
1:53 AM 64.9 °F - 63.0 °F 93% 30.09 in - Calm Calm - N/A   Unknown
2:53 AM 64.0 °F - 62.1 °F 93% 30.08 in - Calm Calm - N/A   Unknown
3:53 AM 63.0 °F - 61.0 °F 93% 30.08 in - Calm Calm - N/A   Unknown
4:53 AM 63.0 °F - 60.1 °F 90% 30.07 in - Calm Calm - N/A   Unknown
5:53 AM 64.9 °F - 62.1 °F 90% 30.07 in - Calm Calm - N/A   Unknown
6:53 AM 63.0 °F - 61.0 °F 93% 30.11 in - Calm Calm - N/A   Unknown
7:53 AM 69.1 °F - 66.0 °F 90% 30.12 in - Calm Calm - N/A   Unknown
8:53 AM 75.0 °F - 69.1 °F 82% 30.13 in - South 3.5 mph - N/A   Unknown
9:53 AM 80.1 °F 83.2 °F 70.0 °F 71% 30.12 in - Variable 3.5 mph - N/A   Unknown
10:53 AM 82.9 °F 85.8 °F 68.0 °F 60% 30.12 in - Variable 3.5 mph - N/A   Unknown
11:53 AM 82.9 °F 85.8 °F 68.0 °F 60% 30.11 in - South 3.5 mph - N/A   Unknown
12:53 PM 88.0 °F 90.7 °F 66.9 °F 49% 30.10 in - SW 4.6 mph - N/A   Unknown
1:53 PM 91.0 °F 93.8 °F 66.0 °F 44% 30.09 in - Variable 5.8 mph 16.1 mph N/A   Unknown
2:53 PM 89.1 °F 91.3 °F 66.0 °F 46% 30.07 in - WSW 10.4 mph - N/A   Unknown
3:53 PM 89.1 °F 90.3 °F 64.0 °F 43% 30.05 in - WSW 6.9 mph - N/A   Unknown
4:53 PM 90.0 °F 92.4 °F 66.0 °F 45% 30.04 in - WSW 11.5 mph 17.3 mph N/A   Unknown
5:53 PM 84.9 °F 87.6 °F 66.9 °F 55% 30.02 in - West 9.2 mph - N/A   Unknown
6:53 PM 82.0 °F 84.9 °F 68.0 °F 62% 30.03 in - West 8.1 mph - N/A   Unknown
7:53 PM 80.1 °F 82.1 °F 66.0 °F 62% 30.04 in - WNW 5.8 mph - N/A   Unknown
8:53 PM 75.9 °F - 66.0 °F 71% 30.05 in - West 3.5 mph - N/A   Unknown
9:53 PM 73.0 °F - 64.9 °F 76% 30.06 in - Calm Calm - N/A   Unknown
10:53 PM 72.0 °F - 64.9 °F 78% 30.07 in - Calm Calm - N/A   Unknown
11:53 PM 72.0 °F - 64.9 °F 78% 30.07 in - Calm Calm - N/A   Unknown